LSZH

Zürich Airport

Airport
ICAO code
LSZH
IATA Code
ZRH
Summary
ICAO Region
EUR
ICAO Territory
Location

Kloten, Zürich

Serving
Zürich
Elevation
1416 ft
Coordinates
47° 27' 53" N , 8° 32' 57" E
KCC
Metar
Observation
LSZH 281650Z 05007KT 020V080 9999 SCT025 BKN030 01/M05 Q1025 NOSIG
Station
Zurich-Kloten
Date/Time
2023-01-28 16:50:00
Wind direction
50°
Wind speed
07 kts
Lowest cloud amount
scattered clouds
Temperature
1°C
Dew point
-5°C
Humidity
64%
QNH
1025 hPa
Weather condition
n/a

An airport serving Grenchen, a municipality in the district of Lebern in the canton of Solothurn in Switzerland.

Climatology

Temperate Marine climate/Oceanic climate (Köppen climate classification Cfb).

Runways

Designator Length Width Surface Rops
10/28 2500 60 CON Yes/Yes
14/32 3300 60 CON Yes/Yes
16/34 3700 60 CON Yes/Yes

SKYbrary Partners:

Safety knowledge contributed by: